DW6016 Weather Reports


Display with metric or nautical units.
time (UTC)temp
F
wind
direction
speed
MPH
gust
MPH
rain 1hr
in
rain 24hr
in
rain mn
in
humidity
%
barometer
mb
20260903132711 53 302 0.0 0.0 0.14 0.07 0.07 99 1010.6
20260903132206 53 301 0.0 0.0 0.07 0.06 0.06 99 1010.6
20260903131701 53 301 0.0 0.0 0.00 0.05 0.05 99 1010.4
20260903131201 53 301 0.0 0.0 0.05 0.05 0.05 99 1010.5
20260903130656 53 212 2.0 2.0 0.05 0.05 0.05 99 1010.4
20260903130150 53 316 0.0 0.0 0.00 0.04 0.04 99 1010.6
20260903125648 53 315 0.0 0.0 0.00 0.04 0.04 99 1010.5
20260903125144 53 313 0.0 0.0 0.00 0.04 0.04 99 1010.4
20260903124638 53 296 0.0 0.0 0.00 0.04 0.04 99 1010.5
20260903124137 53 297 0.0 0.0 0.00 0.04 0.04 99 1010.6
20260903123637 53 302 0.0 0.0 0.00 0.04 0.04 99 1010.4
20260903123136 53 307 0.0 0.0 0.00 0.04 0.04 99 1010.6
20260903122631 53 318 0.0 0.0 0.00 0.04 0.04 99 1010.6
20260903122130 52 310 0.0 0.0 0.00 0.04 0.04 99 1010.6
20260903121629 52 317 0.0 0.0 0.00 0.04 0.04 99 1010.5
20260903121126 52 317 0.0 0.0 0.00 0.04 0.04 99 1010.4
20260903120624 52 306 0.0 0.0 0.00 0.04 0.04 99 1010.5
20260903120119 52 307 0.0 0.0 0.00 0.04 0.04 99 1010.6
20260903115617 52 307 0.0 0.0 0.00 0.04 0.04 99 1010.7
20260903115113 52 295 0.0 1.0 0.00 0.04 0.04 99 1010.9
20260903114608 52 295 0.0 0.0 0.00 0.04 0.04 99 1010.6
20260903114103 52 296 0.0 0.0 0.00 0.04 0.04 99 1010.7
20260903113559 52 296 0.0 0.0 0.00 0.04 0.04 99 1010.7
20260903113055 52 296 0.0 1.0 0.00 0.04 0.04 99 1010.6
20260903112551 53 297 0.0 0.0 0.00 0.04 0.04 99 1010.7
20260903112050 53 299 0.0 0.0 0.00 0.04 0.04 99 1010.8
20260903111549 53 304 0.0 0.0 0.00 0.04 0.04 99 1010.7
20260903111045 53 304 0.0 0.0 0.00 0.04 0.04 99 1010.6
20260903110541 53 305 0.0 0.0 0.00 0.04 0.04 99 1010.9
20260903110036 53 299 0.0 0.0 0.00 0.04 0.04 99 1010.8
20260903105531 53 305 0.0 0.0 0.00 0.04 0.04 99 1010.7
20260903105025 53 307 0.0 0.0 0.00 0.04 0.04 99 1010.8
20260903104520 53 284 1.0 1.0 0.00 0.04 0.04 99 1010.8
20260903104016 53 305 0.0 0.0 0.00 0.04 0.04 99 1010.7
20260903103512 53 305 0.0 0.0 0.00 0.04 0.04 99 1010.8
20260903103008 54 301 1.0 1.0 0.00 0.04 0.04 99 1011.0
20260903102503 54 299 1.0 1.0 0.00 0.04 0.04 99 1010.9
20260903102002 54 286 1.0 1.0 0.00 0.04 0.04 99 1010.7
20260903101456 54 300 0.0 0.0 0.00 0.04 0.04 99 1010.6
20260903100952 54 303 0.0 0.0 0.00 0.04 0.04 99 1010.4
20260903100447 54 307 0.0 0.0 0.00 0.04 0.04 99 1010.5
20260903095943 54 318 0.0 0.0 0.07 0.04 0.04 99 1010.5
20260903095438 54 306 0.0 0.0 0.07 0.04 0.04 99 1010.5
20260903094934 54 301 0.0 0.0 0.00 0.03 0.03 99 1010.6
20260903094432 54 242 1.0 1.0 0.00 0.03 0.03 99 1010.4
20260903093929 54 304 0.0 0.0 0.00 0.03 0.03 99 1010.2
20260903093424 55 276 1.0 2.0 0.00 0.03 0.03 99 1010.6
20260903092919 55 296 0.0 0.0 0.00 0.03 0.03 99 1010.6
20260903092414 55 291 0.0 0.0 0.00 0.03 0.03 99 1010.6
20260903091912 55 298 0.0 0.0 0.00 0.03 0.03 99 1010.4
20260903091411 55 295 0.0 0.0 0.00 0.03 0.03 99 1010.6
20260903090906 55 308 0.0 0.0 0.00 0.03 0.03 99 1010.7
20260903090402 55 307 0.0 0.0 0.00 0.03 0.03 99 1010.7
20260903085900 55 311 0.0 0.0 0.00 0.03 0.03 99 1010.6
20260903085359 55 302 0.0 0.0 0.00 0.03 0.03 99 1010.6
20260903084859 55 302 0.0 0.0 0.00 0.03 0.03 99 1011.0
20260903084357 55 303 0.0 0.0 0.00 0.03 0.03 99 1010.8
20260903083853 55 304 0.0 0.0 0.00 0.03 0.03 99 1010.7
20260903083349 55 303 0.0 0.0 0.00 0.03 0.03 99 1010.9
20260903082847 55 298 0.0 0.0 0.00 0.03 0.03 99 1010.9
20260903082342 55 301 0.0 0.0 0.05 0.03 0.03 99 1010.8
20260903081838 55 295 1.0 1.0 0.05 0.03 0.03 99 1010.9
20260903081333 55 304 0.0 0.0 0.00 0.02 0.02 99 1011.0
20260903080830 55 305 0.0 0.0 0.00 0.02 0.02 99 1011.0
20260903080327 55 306 0.0 0.0 0.00 0.02 0.02 99 1011.0
20260903075826 55 307 0.0 0.0 0.00 0.02 0.02 99 1011.3
20260903075321 55 330 0.0 0.0 0.00 0.02 0.02 99 1010.9
20260903074821 55 304 0.0 0.0 0.00 0.02 0.02 99 1010.8
20260903074315 55 291 1.0 1.0 0.07 0.02 0.02 99 1011.0
20260903073811 55 306 0.0 0.0 0.12 0.02 0.02 99 1011.0
20260903073306 55 304 0.0 0.0 0.05 0.01 0.01 99 1011.0
20260903072802 55 303 0.0 1.0 0.00 0.00 0.00 99 1010.8
20260903072258 55 303 0.0 0.0 0.00 0.00 0.00 99 1011.0
20260903071754 55 297 1.0 1.0 0.00 0.00 0.00 99 1010.9
20260903071250 55 199 1.0 1.0 0.00 0.00 0.00 99 1010.9
20260903070744 55 309 0.0 0.0 0.00 0.00 0.00 99 1010.7
20260903070240 55 298 0.0 0.0 0.00 0.00 0.00 99 1010.8
20260903065735 55 284 0.0 1.0 0.00 0.37 0.37 99 1010.9
20260903065234 55 304 0.0 0.0 0.00 0.37 0.37 99 1010.6
20260903064733 55 294 0.0 1.0 0.00 0.37 0.37 99 1010.7
20260903064228 55 299 0.0 0.0 0.00 0.37 0.37 99 1010.8
20260903063725 55 272 1.0 1.0 0.00 0.37 0.37 99 1010.7
20260903063219 55 306 0.0 0.0 0.00 0.37 0.37 99 1010.7
20260903062715 55 309 0.0 0.0 0.00 0.37 0.37 99 1010.8
20260903062215 55 313 0.0 0.0 0.00 0.37 0.37 99 1010.8
20260903061712 55 305 0.0 0.0 0.00 0.37 0.37 99 1011.0
20260903061209 55 307 0.0 0.0 0.00 0.37 0.37 99 1010.8
20260903060706 55 304 0.0 0.0 0.00 0.37 0.37 99 1010.9
20260903060200 55 302 0.0 0.0 0.00 0.37 0.37 99 1010.8
20260903055658 55 238 0.0 1.0 0.00 0.37 0.37 99 1010.6
20260903055156 55 298 0.0 1.0 0.00 0.37 0.37 99 1010.7
20260903054651 55 266 0.0 1.0 0.00 0.37 0.37 99 1010.7
20260903054147 55 300 0.0 0.0 0.00 0.37 0.37 99 1010.8
20260903053643 56 262 1.0 1.0 0.00 0.37 0.37 99 1011.0
20260903053138 56 308 0.0 0.0 0.00 0.37 0.37 99 1010.9
20260903052634 56 300 0.0 0.0 0.00 0.37 0.37 99 1010.7
20260903052129 56 301 0.0 0.0 0.00 0.37 0.37 99 1011.0
20260903051624 56 301 0.0 0.0 0.00 0.37 0.37 99 1010.8
20260903051120 56 309 0.0 0.0 0.00 0.37 0.37 99 1010.7
20260903050620 56 291 0.0 0.0 0.00 0.37 0.37 99 1010.8
20260903050115 55 234 0.0 1.0 0.00 0.37 0.37 99 1010.7
20260903045614 55 306 0.0 0.0 0.00 0.37 0.37 99 1010.7
20260903045110 55 306 0.0 0.0 0.00 0.37 0.37 99 1010.8
20260903044606 55 300 0.0 0.0 0.00 0.37 0.37 99 1010.8
20260903044102 56 302 0.0 0.0 0.00 0.37 0.37 99 1010.6
20260903043557 56 301 0.0 0.0 0.00 0.37 0.37 99 1010.7
20260903043057 56 304 0.0 0.0 0.00 0.37 0.37 99 1010.8
20260903042551 56 311 0.0 0.0 0.00 0.37 0.37 99 1010.6
20260903042047 56 310 0.0 0.0 0.00 0.37 0.37 99 1010.4
20260903041544 56 300 0.0 0.0 0.00 0.37 0.37 99 1010.4
20260903041038 56 320 0.0 0.0 0.00 0.37 0.37 99 1010.4
20260903040537 57 322 0.0 0.0 0.00 0.37 0.37 99 1010.3
20260903040034 57 302 0.0 0.0 0.00 0.37 0.37 99 1010.2
20260903035529 57 303 0.0 0.0 0.00 0.37 0.37 99 1010.3
20260903035025 57 303 0.0 0.0 0.00 0.37 0.37 99 1010.1
20260903034525 57 304 0.0 0.0 0.00 0.37 0.37 99 1009.9
20260903034020 57 304 0.0 0.0 0.00 0.37 0.37 99 1009.7
20260903033515 57 318 0.0 0.0 0.00 0.37 0.37 99 1009.7
20260903033011 57 307 0.0 0.0 0.00 0.37 0.37 99 1009.9
20260903032506 57 315 0.0 0.0 0.00 0.37 0.37 99 1009.8
20260903032001 58 310 0.0 0.0 0.00 0.37 0.37 99 1009.6
20260903031501 58 293 0.0 1.0 0.00 0.37 0.37 99 1009.6
20260903030956 58 307 0.0 0.0 0.00 0.37 0.37 99 1009.5
20260903030452 58 300 0.0 0.0 0.07 0.37 0.37 99 1009.5
20260903025947 58 225 1.0 2.0 0.07 0.37 0.37 99 1009.7
20260903025443 58 301 0.0 0.0 0.00 0.36 0.36 99 1009.6
20260903024938 58 301 1.0 1.0 0.00 0.36 0.36 99 1009.7
20260903024437 58 301 0.0 0.0 0.00 0.36 0.36 99 1009.4
20260903023932 59 305 0.0 0.0 0.00 0.36 0.36 99 1009.2
20260903023428 59 297 0.0 0.0 0.00 0.36 0.36 99 1009.1
20260903022923 59 268 1.0 2.0 0.00 0.36 0.36 99 1009.1
20260903022422 59 287 0.0 0.0 0.00 0.36 0.36 99 1009.2
20260903021920 59 291 0.0 1.0 0.00 0.36 0.36 99 1009.2
20260903021417 59 285 0.0 0.0 0.00 0.36 0.36 99 1009.3
20260903020916 59 281 1.0 1.0 0.00 0.36 0.36 99 1009.1
20260903020412 59 310 0.0 1.0 0.05 0.36 0.36 99 1009.1
20260903015907 59 302 0.0 0.0 0.05 0.36 0.36 99 1008.8
20260903015403 59 288 1.0 1.0 0.00 0.35 0.35 99 1008.9
20260903014858 59 287 0.0 0.0 0.00 0.35 0.35 99 1008.7
20260903014357 59 280 1.0 1.0 0.00 0.35 0.35 99 1008.8
20260903013852 59 300 0.0 0.0 0.00 0.35 0.35 99 1008.9
20260903013352 59 287 1.0 1.0 0.00 0.35 0.35 99 1008.9
20260903012851 59 301 1.0 1.0 0.00 0.35 0.35 99 1008.9
20260903012351 59 297 0.0 1.0 0.00 0.35 0.35 99 1008.8
20260903011849 59 299 0.0 0.0 0.00 0.35 0.35 99 1008.6
20260903011344 59 284 0.0 0.0 0.00 0.35 0.35 99 1008.5
20260903010840 59 232 1.0 1.0 0.00 0.35 0.35 99 1008.8
20260903010335 59 302 0.0 0.0 0.00 0.35 0.35 99 1008.6
20260903005833 59 274 1.0 1.0 0.00 0.35 0.35 99 1008.7
20260903005329 60 326 0.0 0.0 0.00 0.35 0.35 99 1008.5
20260903004824 59 321 0.0 0.0 0.07 0.35 0.35 99 1008.5
20260903004320 59 290 0.0 1.0 0.07 0.35 0.35 99 1008.5
20260903003816 59 307 0.0 0.0 0.00 0.34 0.34 99 1008.5
20260903003310 59 297 1.0 1.0 0.05 0.34 0.34 99 1008.2
20260903002810 59 346 1.0 1.0 0.05 0.34 0.34 99 1008.3
20260903002309 60 309 0.0 0.0 0.05 0.34 0.34 99 1008.3
20260903001804 60 303 0.0 0.0 0.00 0.33 0.33 99 1008.6
20260903001259 59 304 0.0 0.0 0.00 0.33 0.33 99 1008.1
20260903000754 59 300 1.0 1.0 0.00 0.33 0.33 99 1008.2
20260903000249 59 294 0.0 1.0 0.00 0.33 0.33 99 1008.3
20260902235747 59 303 0.0 0.0 0.00 0.33 0.33 99 1008.3
20260902235243 59 318 0.0 0.0 0.00 0.33 0.33 99 1008.2
20260902234742 59 316 0.0 1.0 0.00 0.33 0.33 99 1008.2
20260902234242 59 301 0.0 0.0 0.00 0.33 0.33 99 1008.2
20260902233742 59 308 1.0 1.0 0.00 0.33 0.33 99 1008.3
20260902233236 59 315 0.0 0.0 0.00 0.33 0.33 99 1008.0
20260902232735 59 307 0.0 0.0 0.00 0.33 0.33 99 1008.1
20260902232235 59 287 0.0 1.0 0.00 0.33 0.33 99 1008.3
20260902231734 59 313 0.0 0.0 0.00 0.33 0.33 99 1007.9
20260902231230 59 301 0.0 1.0 0.07 0.33 0.33 99 1007.9
20260902230724 59 300 0.0 1.0 0.07 0.33 0.33 99 1007.9
20260902230223 59 307 0.0 1.0 0.00 0.32 0.32 99 1008.0
20260902225718 59 306 0.0 0.0 0.00 0.32 0.32 99 1007.8
20260902225218 59 310 0.0 0.0 0.00 0.32 0.32 99 1007.8
20260902224717 59 310 0.0 1.0 0.00 0.32 0.32 99 1007.8
20260902224212 59 302 0.0 1.0 0.00 0.32 0.32 99 1007.5
20260902223708 59 287 1.0 2.0 0.00 0.32 0.32 99 1007.6
20260902223208 59 303 0.0 0.0 0.00 0.32 0.32 99 1007.6
20260902222707 59 297 0.0 0.0 0.00 0.32 0.32 99 1007.6
20260902222201 59 227 1.0 2.0 0.00 0.32 0.32 99 1007.7
20260902221655 59 305 0.0 0.0 0.00 0.32 0.32 99 1007.8
20260902221154 59 313 0.0 0.0 0.00 0.32 0.32 99 1007.7
20260902220650 59 270 0.0 1.0 0.00 0.32 0.32 99 1007.8
20260902220145 59 135 2.0 5.0 0.00 0.32 0.32 99 1007.6
20260902215641 59 195 0.0 2.0 0.00 0.32 0.32 99 1007.6
20260902215136 59 318 0.0 0.0 0.00 0.32 0.32 99 1007.7
20260902214631 59 306 0.0 0.0 0.00 0.32 0.32 99 1007.6
20260902214130 59 322 0.0 0.0 0.00 0.32 0.32 99 1007.6
20260902213626 59 315 0.0 0.0 0.00 0.32 0.32 99 1007.7
20260902213125 59 298 0.0 0.0 0.00 0.32 0.32 99 1007.5
20260902212621 59 305 0.0 0.0 0.00 0.32 0.32 99 1007.7
20260902212117 59 284 0.0 1.0 0.00 0.32 0.32 99 1007.6
20260902211613 59 316 0.0 0.0 0.00 0.32 0.32 99 1007.5
20260902211108 59 319 0.0 0.0 0.00 0.32 0.32 99 1007.5
20260902210607 59 316 0.0 0.0 0.00 0.32 0.32 99 1007.4
20260902205601 59 298 0.0 0.0 0.00 0.32 0.32 99 1007.5
20260902205057 59 73 0.0 0.0 0.07 0.32 0.32 99 1007.5
20260902204556 59 307 0.0 0.0 0.07 0.32 0.32 99 1007.3
20260902204051 59 321 0.0 0.0 0.00 0.31 0.31 99 1007.6
20260902203547 59 308 0.0 0.0 0.00 0.31 0.31 99 1007.2
20260902203046 59 314 0.0 0.0 0.00 0.31 0.31 99 1007.2
20260902202542 59 324 0.0 0.0 0.05 0.31 0.31 99 1007.3
20260902202038 59 93 3.0 5.0 0.12 0.31 0.31 99 1007.1
20260902201534 59 319 0.0 0.0 0.07 0.30 0.30 99 1007.2
20260902201033 59 308 0.0 0.0 0.12 0.30 0.30 99 1007.2
20260902200528 59 332 0.0 1.0 0.17 0.29 0.29 99 1007.0
20260902200024 59 325 0.0 0.0 0.19 0.28 0.28 99 1007.5
20260902195520 59 330 0.0 0.0 0.12 0.26 0.26 99 1007.4
20260902195019 59 5 0.0 1.0 0.12 0.25 0.25 99 1007.4
20260902194518 59 302 0.0 0.0 0.12 0.24 0.24 99 1007.5
20260902194014 59 348 0.0 1.0 0.24 0.24 0.24 99 1007.8
20260902193510 59 339 0.0 0.0 0.26 0.22 0.22 99 1007.5
20260902193009 59 311 0.0 0.0 0.19 0.20 0.20 99 1008.0
20260902192508 59 311 0.0 0.0 0.17 0.18 0.18 99 1007.7
20260902192007 59 303 0.0 0.0 0.19 0.17 0.17 99 1007.9
20260902191502 59 305 0.0 0.0 0.12 0.16 0.16 99 1007.8
20260902190957 59 310 0.0 0.0 0.12 0.15 0.15 99 1007.8
20260902190452 59 318 0.0 0.0 0.12 0.14 0.14 99 1007.7
20260902185948 59 333 0.0 1.0 0.12 0.13 0.13 99 1007.5
20260902185444 59 318 0.0 0.0 0.07 0.11 0.11 99 1007.6
20260902184939 59 308 0.0 0.0 0.07 0.11 0.11 98 1007.5
20260902184434 59 327 0.0 0.0 0.00 0.10 0.10 98 1007.7
20260902183930 59 326 0.0 0.0 0.05 0.10 0.10 98 1007.9
20260902183426 59 336 0.0 0.0 0.05 0.10 0.10 98 1007.9
20260902182921 59 327 0.0 0.0 0.07 0.09 0.09 97 1008.1
20260902182418 59 328 0.0 0.0 0.07 0.09 0.09 97 1008.3
20260902181914 59 303 0.0 0.0 0.05 0.08 0.08 97 1008.3
20260902181409 59 309 0.0 0.0 0.05 0.08 0.08 96 1008.4
20260902180903 59 310 0.0 0.0 0.07 0.07 0.07 96 1008.4
20260902180358 59 304 0.0 0.0 0.14 0.07 0.07 95 1008.5
20260902175853 60 289 0.0 0.0 0.12 0.06 0.06 95 1008.4
20260902175349 60 288 0.0 0.0 0.05 0.05 0.05 94 1008.4
20260902174844 61 298 0.0 0.0 0.07 0.04 0.04 93 1008.4
20260902174342 61 295 0.0 0.0 0.05 0.03 0.03 90 1008.3
20260902173837 62 295 0.0 0.0 0.12 0.03 0.03 89 1008.3
20260902173336 62 295 0.0 0.0 0.12 0.02 0.02 85 1008.3
20260902172831 63 295 0.0 0.0 0.05 0.01 0.01 84 1008.2
20260902172331 64 295 0.0 0.0 0.00 0.00 0.00 84 1007.9
20260902171825 64 295 0.0 0.0 0.00 0.00 0.00 82 1008.0
20260902171320 64 295 0.0 0.0 0.00 0.00 0.00 81 1007.9
20260902170812 64 295 0.0 0.0 0.00 0.00 0.00 80 1007.8
20260902170307 65 295 0.0 0.0 0.00 0.00 0.00 78 1007.7
20260902165803 65 295 0.0 0.0 0.00 0.00 0.00 77 1007.8
20260902165308 65 296 0.0 0.0 0.00 0.00 0.00 74 1007.8
20260902164756 65 296 0.0 0.0 0.00 0.00 0.00 74 1007.6
20260902164251 65 296 0.0 0.0 0.00 0.00 0.00 74 1007.7
20260902163746 65 296 0.0 0.0 0.00 0.00 0.00 72 1007.8
20260902163245 65 295 0.0 0.0 0.00 0.00 0.00 71 1007.5
20260902162744 65 298 0.0 0.0 0.00 0.00 0.00 72 1007.6
20260902162239 65 299 0.0 0.0 0.00 0.00 0.00 71 1007.6
20260902161734 65 304 0.0 0.0 0.00 0.00 0.00 72 1007.4
20260902161229 65 307 0.0 0.0 0.00 0.00 0.00 73 1007.8
20260902160726 64 310 0.0 0.0 0.00 0.00 0.00 73 1007.6
20260902160220 64 312 0.0 0.0 0.00 0.00 0.00 74 1007.7
20260902155718 64 314 0.0 0.0 0.00 0.00 0.00 74 1007.6
20260902155217 64 308 0.0 1.0 0.00 0.00 0.00 75 1007.8
20260902154712 64 297 0.0 0.0 0.00 0.00 0.00 74 1008.1
20260902154207 64 298 0.0 0.0 0.00 0.00 0.00 76 1007.8
20260902153706 64 298 0.0 0.0 0.00 0.00 0.00 75 1007.9
20260902153201 63 303 0.0 0.0 0.00 0.00 0.00 76 1008.0
20260902152657 63 318 0.0 0.0 0.00 0.00 0.00 76 1007.9
20260902152152 63 312 0.0 0.0 0.00 0.00 0.00 77 1008.1
20260902151648 63 329 0.0 0.0 0.00 0.00 0.00 76 1008.0
20260902151142 63 322 0.0 0.0 0.00 0.00 0.00 76 1008.0
20260902150638 62 322 0.0 0.0 0.00 0.00 0.00 78 1008.2
20260902150133 62 326 0.0 0.0 0.00 0.00 0.00 79 1008.1
20260902145632 62 320 0.0 0.0 0.00 0.00 0.00 78 1008.2
20260902145132 62 321 0.0 0.0 0.00 0.00 0.00 77 1008.4
20260902144629 62 311 1.0 1.0 0.00 0.00 0.00 78 1008.5
20260902144124 62 304 0.0 0.0 0.00 0.00 0.00 78 1008.6
20260902143619 62 304 0.0 0.0 0.00 0.00 0.00 78 1008.4
20260902143115 61 297 0.0 0.0 0.00 0.00 0.00 78 1008.7
20260902142610 61 310 0.0 0.0 0.00 0.00 0.00 78 1008.5
20260902142106 61 308 0.0 0.0 0.00 0.00 0.00 78 1008.6
20260902141605 61 327 0.0 0.0 0.00 0.00 0.00 78 1008.7
20260902141101 60 337 0.0 0.0 0.00 0.00 0.00 79 1008.8
20260902140555 60 330 0.0 0.0 0.00 0.00 0.00 80 1008.6
20260902140051 60 307 0.0 0.0 0.00 0.00 0.00 82 1009.0
20260902135551 60 308 0.0 0.0 0.00 0.00 0.00 81 1008.8
20260902135051 60 298 0.0 0.0 0.00 0.00 0.00 82 1008.9
20260902134547 60 298 0.0 0.0 0.00 0.00 0.00 82 1009.0
20260902134047 60 298 0.0 0.0 0.00 0.00 0.00 82 1009.0
20260902133547 60 298 0.0 0.0 0.00 0.00 0.00 82 1009.2